User: anonymous   Login
Location: Unspecified
(0.0000°N, 0.0000°E)
Time: 06:51:10
(UTC+00:00)
Language:

Cosmos 2499 - Orbit

View from above orbital plane
View from above orbital plane
View from above satellite
View from above satellite

Ground track
Ground track

The orbit data is extracted from the following two-line orbital elements,

1 39765U 14028E   17087.70865484 -.00000098 +00000-0 -40518-3 0  9990
2 39765 082.4465 006.4445 0229097 348.5957 011.0030 12.83552438133412
Epoch (UTC): 28 March 2017 17:00:27
Eccentricity: 0.0229097
inclination: 82.4465°
perigee height: 1150 km
apogee height: 1504 km
right ascension of ascending node: 6.4445°
argument of perigee: 348.5957°
revolutions per day: 12.83552438
mean anomaly at epoch: 11.0030°
orbit number at epoch: 13341

The dashed part of the orbit path shows where the satellite is in the earth's shadow,  

DLR